GEFSSE_500_meanwind_078.txt.gz
Wind_Speed
8 9 9 9 9 9 9 9 9 10 10 10 9 9 10 10 10 10 11 11 11 11 11 11 12 12 12 12 11 11 11 11 10 10 9 8 7 7 6 6 6 6 7
11 11 11 12 12 12 12 12 12 12 12 12 11 11 11 11 11 11 11 11 11 11 11 11 11 11 11 11 11 11 11 11 11 10 10 9 8 7 6 6 6 6 5
13 13 13 13 14 14 15 15 15 15 14 14 14 13 13 12 12 11 11 11 11 10 10 10 10 10 10 10 11 11 11 11 11 10 10 9 8 8 7 7 6 5 4
14 14 15 15 15 16 16 16 18 17 17 16 16 15 15 14 13 13 12 11 11 10 10 10 10 10 10 10 10 11 11 11 10 10 9 9 8 7 7 6 6 5 4
15 15 16 17 17 18 18 19 19 20 20 19 18 18 17 16 16 15 14 13 12 11 10 10 9 9 9 9 10 10 10 10 10 10 9 9 9 7 7 6 6 5 4
18 18 18 18 19 20 21 21 21 21 22 22 22 21 20 19 18 17 16 14 13 12 11 10 10 9 10 9 9 10 9 9 10 9 9 9 9 8 7 7 6 5 4
21 21 22 21 21 22 23 24 23 22 23 24 24 24 23 22 21 19 18 17 15 14 13 11 10 10 10 9 9 9 9 9 9 9 9 9 8 8 7 7 6 5 4
24 24 25 25 25 24 25 25 24 23 24 25 26 25 25 24 23 22 21 19 18 16 15 13 12 11 10 10 9 9 9 9 9 9 9 9 8 8 7 7 6 6 5
27 27 28 27 27 28 27 27 27 26 26 26 26 27 26 25 25 25 24 22 21 19 17 15 14 12 11 10 10 9 9 9 8 8 8 9 8 8 7 7 6 6 6
29 30 30 30 30 30 30 30 30 29 29 28 28 28 27 27 27 26 26 25 23 20 19 18 16 14 13 11 11 10 9 9 8 8 8 9 9 8 8 8 7 7 7
30 31 31 32 33 33 33 33 33 32 32 32 32 31 29 28 29 28 27 27 26 24 21 20 19 17 15 13 11 11 10 9 8 8 8 8 8 8 8 8 8 8 8
29 30 30 31 32 33 34 34 34 35 35 34 34 33 32 31 30 30 29 29 27 26 24 22 22 20 17 15 13 12 11 10 9 9 9 8 8 8 9 9 9 8 9
29 29 29 30 30 31 32 33 34 35 35 35 35 34 33 33 32 32 31 29 29 28 27 25 24 23 20 18 16 14 13 11 11 10 10 10 9 9 9 10 10 9 9
26 27 27 28 29 30 31 31 33 34 34 35 35 35 35 34 33 32 32 31 30 30 29 27 26 24 23 21 18 16 15 14 12 12 12 11 10 10 10 11 11 10 10
24 25 25 26 27 28 29 30 31 32 33 34 34 35 35 34 35 34 33 32 31 30 31 30 29 27 24 23 21 19 17 16 15 14 13 12 12 11 11 11 11 11 11
23 23 24 24 25 26 26 27 28 29 30 31 32 33 34 34 33 33 33 33 32 31 31 30 29 28 27 26 24 22 20 18 17 16 15 14 13 13 12 12 12 12 12
23 23 23 23 23 23 24 24 24 25 26 27 28 30 31 33 33 33 34 33 33 33 32 30 29 28 28 27 26 24 21 21 19 18 17 16 15 15 14 14 13 13 13
23 23 23 23 22 22 22 21 21 21 22 23 24 26 27 29 31 32 33 34 34 33 33 33 32 29 28 28 26 26 23 22 22 20 20 19 18 17 16 16 15 14 14
22 23 23 22 22 22 21 20 19 19 20 20 21 23 24 26 27 29 30 32 34 35 33 34 33 31 30 30 28 27 25 25 24 22 22 21 20 19 19 18 18 17 16
22 22 23 23 22 22 21 19 19 18 18 18 19 20 21 22 24 26 28 30 32 34 34 34 34 33 31 31 30 29 28 26 26 25 24 24 23 22 21 21 20 19 18
22 22 23 23 23 22 21 19 19 18 17 16 16 17 19 20 21 23 25 28 29 31 33 34 35 35 33 32 32 32 31 29 28 28 27 26 26 25 24 23 22 21 20
22 22 23 23 23 22 21 20 19 18 17 16 15 15 16 18 19 20 22 24 27 29 31 32 34 35 35 35 33 33 33 31 31 30 29 29 28 28 27 26 24 23 22
22 23 23 23 23 22 21 20 19 18 17 16 15 14 15 16 17 18 20 22 24 26 29 31 32 35 36 35 35 35 34 33 34 32 33 32 32 30 29 29 27 26 25
22 23 24 24 23 22 22 20 19 19 18 17 15 14 14 14 15 17 18 19 21 24 26 29 31 33 35 36 36 36 36 34 35 34 34 35 35 34 32 31 30 29 28
22 23 24 24 23 23 22 21 21 20 19 18 17 15 15 14 14 15 16 18 20 22 24 27 29 32 34 36 36 37 37 36 36 36 35 36 36 36 35 33 32 33 31
22 23 23 23 23 23 23 22 21 21 20 19 18 17 16 15 14 14 15 16 18 20 22 25 28 31 32 34 35 36 36 36 37 37 36 35 36 37 37 36 34 35 34

GEFSSE_500_meanwind_084.txt.gz
Wind_Speed
10 9 9 10 10 10 11 11 11 12 12 12 13 13 13 13 13 13 12 12 12 12 13 13 13 13 14 14 14 14 13 13 12 11 11 10 9 7 6 5 4 4 4
10 10 11 11 11 12 13 13 14 14 14 14 15 15 15 15 15 14 13 13 13 13 13 13 13 13 13 14 14 14 14 13 13 12 11 11 10 8 7 6 5 3 3
11 12 12 13 13 14 15 15 16 16 17 17 17 18 17 17 17 16 15 15 14 14 13 13 13 13 12 12 13 13 13 13 12 12 12 11 10 10 8 7 5 4 2
13 14 14 15 15 16 17 17 18 18 19 19 20 20 20 19 19 18 18 17 16 15 14 13 13 13 13 12 12 12 13 13 12 12 12 12 11 10 9 8 7 5 3
16 16 17 17 17 18 19 19 20 20 21 21 22 23 23 22 21 21 20 19 18 16 15 14 14 13 13 13 12 12 12 13 13 12 12 12 11 10 9 8 7 6 5
19 19 20 20 20 21 21 21 21 22 22 23 24 24 25 26 25 23 23 22 20 19 17 16 14 14 13 13 12 12 12 13 13 13 13 13 12 11 10 9 8 7 6
22 22 22 23 23 23 24 24 24 24 24 24 25 25 26 27 27 26 25 24 23 21 19 18 16 15 14 13 13 12 12 13 13 13 13 13 12 11 11 10 10 8 7
24 24 25 25 25 25 26 26 26 27 27 27 27 27 28 28 27 26 26 25 24 23 21 20 18 16 15 14 13 12 12 12 13 13 13 12 12 11 11 10 10 9 8
24 25 26 26 26 27 28 28 29 29 29 29 29 29 29 29 29 28 28 26 25 25 24 22 20 18 17 15 14 13 12 12 13 13 12 12 12 11 10 9 9 9 9
24 25 25 26 26 27 28 29 30 31 31 31 31 31 31 29 29 29 29 28 27 26 26 25 23 21 19 17 15 14 13 13 13 13 12 12 11 11 10 10 10 10 10
22 23 23 23 24 25 26 28 29 31 31 32 32 32 32 31 31 30 30 29 29 28 26 26 25 24 21 19 17 15 14 14 14 13 13 12 11 11 11 10 10 10 11
20 20 21 22 22 23 24 25 26 28 29 30 31 32 33 33 32 31 30 29 29 29 29 28 27 26 24 22 20 18 16 15 14 14 13 12 12 11 11 11 11 11 11
19 19 20 20 21 21 22 23 24 26 27 28 29 31 31 32 33 33 32 29 28 27 28 28 29 28 26 24 22 20 18 17 16 15 13 13 12 12 12 12 12 12 13
18 19 19 20 20 20 21 22 23 24 25 26 27 29 30 30 31 33 33 31 30 29 28 28 27 27 28 26 24 23 21 19 17 16 15 14 13 13 12 13 13 13 14
18 18 18 19 20 20 20 20 21 22 22 23 24 26 28 28 29 30 32 32 31 31 28 28 28 27 27 28 27 25 23 22 19 18 17 15 14 14 14 14 14 14 14
17 18 18 19 19 19 19 19 19 19 19 20 21 22 24 26 27 28 29 30 31 31 30 29 28 28 28 28 28 27 25 24 22 20 19 18 16 16 15 15 15 15 15
17 18 18 19 19 19 19 18 18 18 17 17 18 19 20 22 24 26 27 29 29 30 31 31 29 29 28 28 28 29 28 27 24 23 22 19 18 17 17 17 17 16 16
18 19 19 20 20 20 19 19 18 17 16 16 16 16 17 19 20 22 25 27 28 29 30 31 31 31 30 29 28 29 30 29 27 25 24 22 20 20 19 19 18 18 17
19 19 20 21 21 20 20 19 18 17 16 15 14 14 15 16 18 20 22 24 26 28 29 30 31 31 31 31 29 29 31 31 30 28 26 25 23 22 22 21 20 19 19
19 20 21 21 21 21 20 19 18 17 16 14 13 13 12 13 15 18 20 22 24 26 28 29 30 31 32 32 31 30 31 31 31 30 28 27 26 25 24 23 22 21 21
19 20 21 22 22 21 21 20 19 17 16 15 13 12 11 11 11 14 17 19 21 23 25 27 29 30 31 31 32 31 31 32 32 31 29 29 28 27 26 25 25 24 23
19 20 21 21 22 22 21 21 20 18 17 15 14 13 12 10 10 10 12 15 18 20 22 25 26 29 30 31 32 32 32 33 32 32 32 31 31 30 29 28 27 26 25
19 20 20 21 22 22 22 21 21 19 17 16 15 14 13 11 10 9 10 12 14 17 19 22 24 26 29 30 31 32 32 32 34 34 35 35 34 32 32 31 30 29 28
19 20 21 21 22 22 22 22 22 21 19 18 16 15 14 12 10 9 9 9 11 14 17 19 22 24 27 29 31 32 33 34 35 35 35 36 35 35 34 33 33 32 31
19 20 21 22 22 22 22 22 22 21 20 19 18 17 15 14 12 11 10 10 11 12 15 17 20 23 25 28 30 32 33 34 36 37 37 37 37 36 36 36 35 34 33
18 19 20 21 22 22 22 22 22 22 21 20 19 18 17 16 14 13 11 10 10 12 14 16 19 22 24 27 30 32 32 33 35 37 37 37 38 39 38 37 37 35 35

GEFSSE_500_meanwind_090.txt.gz
Wind_Speed
10 10 10 11 11 12 13 13 13 13 12 12 11 11 11 10 10 9 9 9 9 9 9 9 9 10 10 10 11 11 11 12 12 11 10 9 8 7 6 5 4 4 4
12 12 12 11 12 14 14 15 15 15 15 14 14 14 13 13 13 12 11 11 11 10 10 9 10 10 10 10 10 11 11 12 12 12 11 10 9 8 7 6 5 5 4
13 13 13 14 14 15 16 17 17 17 17 17 17 16 16 15 15 15 14 13 13 12 11 10 10 11 10 10 10 10 11 11 12 12 11 10 10 9 8 7 6 5 4
15 15 16 16 17 17 18 19 19 19 19 19 19 19 18 18 17 17 17 15 15 14 13 12 11 11 11 10 10 10 10 11 11 11 11 11 10 9 9 8 7 5 4
19 19 19 19 20 21 21 21 22 21 21 21 22 21 20 20 19 19 19 18 17 16 15 14 13 12 12 11 10 10 10 11 11 11 11 11 10 10 9 8 7 6 5
22 22 22 22 23 23 24 24 25 24 23 24 23 23 23 22 22 21 20 20 19 18 18 16 15 14 13 12 11 11 11 11 11 11 11 11 11 11 10 9 8 7 7
22 23 24 24 24 25 27 27 27 27 26 26 26 26 25 24 24 23 23 23 21 20 20 19 17 15 14 13 12 12 11 11 11 11 11 12 11 11 11 10 9 8 7
21 22 23 23 24 25 26 26 27 28 29 29 28 28 28 26 26 26 25 24 23 22 21 20 19 18 16 15 14 13 13 12 12 11 11 12 12 11 11 10 10 9 9
20 20 21 21 22 22 23 24 25 27 29 30 30 30 30 29 28 28 27 26 25 24 23 21 21 20 19 17 16 14 14 13 13 12 12 11 11 11 11 11 10 9 9
18 18 19 19 20 20 21 22 23 24 26 28 29 30 30 31 30 29 29 28 27 26 25 23 23 22 20 19 18 16 15 14 14 13 12 11 11 11 11 11 11 10 10
17 17 18 18 18 19 20 21 23 23 24 25 27 29 30 31 31 31 31 29 28 28 27 26 25 24 21 20 20 18 16 16 15 13 13 12 11 11 11 11 11 12 11
16 16 16 17 17 18 19 20 21 23 24 24 25 26 28 29 30 31 32 31 30 29 28 27 25 24 23 21 21 20 18 17 16 15 14 13 12 12 12 12 12 12 12
15 15 16 16 17 18 19 19 20 21 22 23 24 25 26 27 28 30 31 32 31 29 28 27 26 25 24 23 22 22 21 20 18 17 15 14 13 13 13 13 13 13 13
15 15 15 16 16 17 18 18 19 19 20 21 22 23 25 25 26 27 29 31 31 31 30 28 27 25 24 24 23 24 23 21 20 19 17 16 15 14 14 14 14 14 14
15 15 16 16 17 17 18 18 18 18 18 19 19 20 22 23 25 26 27 29 30 30 30 29 29 27 26 25 24 24 24 24 22 20 19 17 16 15 15 15 15 15 15
15 16 16 17 17 18 18 18 18 18 18 18 18 18 19 21 22 24 24 26 28 29 29 30 30 28 28 26 25 25 25 25 24 22 20 19 17 17 16 16 15 16 16
15 16 17 17 18 19 19 19 19 18 18 17 17 16 17 18 19 20 22 23 26 28 28 28 29 29 29 29 28 26 26 25 25 25 23 21 19 18 18 17 17 18 17
15 16 17 18 19 19 20 20 19 19 18 17 16 15 15 15 15 17 18 20 23 25 26 26 27 28 28 29 29 27 27 27 27 26 26 24 22 20 20 19 18 19 18
15 16 17 18 19 20 20 20 20 19 19 18 16 15 13 13 13 13 15 17 19 22 24 25 26 27 27 28 29 29 27 27 27 27 27 26 24 23 22 21 20 20 19
15 16 18 19 20 21 21 21 20 20 19 18 17 15 13 12 11 11 12 15 17 19 21 23 24 25 26 28 29 29 29 29 28 28 28 27 27 26 24 23 23 22 21
15 16 18 19 20 21 21 21 21 21 20 19 18 16 14 12 11 10 10 11 13 16 19 21 22 23 24 27 29 30 30 30 29 28 28 28 29 28 27 25 25 25 24
15 16 18 19 21 21 21 22 22 21 20 19 18 17 15 13 11 10 9 8 10 12 15 18 20 22 23 25 27 29 29 30 30 29 29 30 30 29 29 28 27 27 26
14 16 18 19 20 21 21 22 22 21 20 19 18 17 16 14 13 11 9 8 7 9 11 14 17 20 22 23 26 28 29 30 31 31 31 31 32 32 32 31 30 29 28
14 16 17 19 20 21 21 22 22 22 21 20 19 18 17 15 13 12 10 8 7 7 9 12 14 17 20 22 24 27 29 30 32 31 33 33 33 32 34 34 33 31 30
14 15 17 18 19 20 21 22 22 22 22 21 20 19 18 16 14 12 11 10 8 7 7 10 12 15 17 20 22 25 27 30 32 32 33 34 34 33 34 35 34 33 33
14 15 16 17 18 19 20 21 22 22 22 21 21 19 19 17 15 13 11 10 9 9 7 8 10 13 15 18 21 23 26 28 31 33 34 34 35 36 36 36 37 35 35

GEFSSE_500_meanwind_096.txt.gz
Wind_Speed
12 11 11 11 11 11 12 12 13 13 13 12 12 12 13 13 13 12 12 11 10 9 9 9 9 9 9 9 9 9 9 10 10 9 9 8 7 6 5 5 3 3 2
13 13 13 13 13 13 13 13 15 15 16 15 14 14 14 14 15 14 13 12 12 11 11 10 10 10 9 9 9 9 9 10 10 10 10 9 8 7 6 5 4 3 3
15 14 14 14 14 15 15 16 18 18 18 18 17 16 16 16 15 16 15 14 14 14 13 12 12 11 10 10 10 10 9 10 10 10 10 10 9 8 7 6 5 4 3
16 16 16 17 17 18 19 20 20 21 20 21 20 19 18 18 18 17 17 16 16 16 15 14 14 12 11 11 10 10 10 10 10 11 11 11 10 9 8 7 6 5 4
17 18 18 19 19 20 21 21 21 22 22 23 23 21 21 20 20 19 19 19 18 18 17 16 15 14 13 12 11 11 10 10 11 11 11 11 10 10 9 8 7 6 5
18 18 18 19 20 21 22 23 23 24 24 24 25 24 24 24 23 22 21 21 21 20 19 18 18 16 15 14 13 12 11 11 11 12 12 11 11 10 10 9 8 8 7
16 16 17 18 19 20 21 22 24 25 26 27 28 28 28 26 26 25 24 23 23 23 22 21 19 19 18 16 15 14 13 12 12 12 12 12 12 11 11 10 9 9 8
15 16 16 16 17 17 19 20 22 23 25 26 27 28 28 28 28 28 27 27 25 24 23 22 22 20 20 18 17 16 14 14 14 13 13 12 12 12 11 11 11 10 10
14 14 14 15 16 16 17 18 19 21 23 23 25 26 27 27 27 28 28 28 27 26 24 23 23 23 22 20 19 17 16 15 15 14 14 13 13 12 12 12 12 11 11
13 13 13 14 15 15 16 17 18 19 21 22 22 24 25 27 27 28 28 28 28 27 26 25 24 24 23 22 21 19 18 17 16 16 15 14 13 13 12 12 13 13 13
11 12 12 13 13 14 15 16 17 18 19 21 22 23 24 25 26 28 28 28 28 28 27 26 25 26 24 24 23 21 20 19 18 17 16 15 14 14 13 13 13 14 14
10 10 11 12 12 13 14 15 16 17 18 19 20 22 23 24 25 25 27 28 28 28 28 27 27 26 25 25 24 23 22 21 20 19 18 16 15 15 14 14 14 14 15
9 10 11 11 12 13 14 15 16 17 17 18 19 20 20 21 23 24 25 26 27 28 28 28 28 26 26 26 26 25 24 23 22 21 20 18 17 16 15 15 15 15 16
9 10 10 11 12 13 14 15 16 16 17 17 17 18 19 20 20 22 24 24 25 27 28 28 28 27 26 27 26 25 26 24 23 22 21 20 18 17 17 16 16 17 17
8 9 10 11 12 13 14 14 15 15 15 16 16 17 18 19 19 20 22 23 24 26 27 28 28 28 28 27 26 26 26 25 24 23 22 21 19 18 18 17 16 18 19
8 9 10 11 12 13 14 14 15 15 15 15 15 15 15 16 17 19 19 21 23 24 26 27 27 27 27 27 26 27 27 26 25 25 24 23 21 20 19 18 18 18 19
7 9 10 11 12 13 14 15 15 15 15 15 14 14 14 14 15 16 18 19 20 22 24 25 26 27 26 25 26 27 27 27 26 26 26 25 23 22 21 19 19 19 20
7 9 10 11 12 13 14 15 16 16 16 15 14 14 13 13 13 13 15 16 17 19 21 23 24 25 26 25 26 27 28 28 28 26 26 26 25 23 22 21 20 20 21
7 8 10 11 12 14 14 15 16 16 16 15 14 14 13 12 11 11 12 13 14 16 18 20 21 23 25 25 25 26 27 28 29 28 27 27 27 25 24 22 21 22 22
7 8 9 11 12 14 15 15 16 17 16 15 14 14 13 12 11 9 9 9 10 12 15 17 19 21 23 25 25 26 26 27 28 28 27 27 28 27 26 23 23 24 23
7 8 9 10 12 13 14 15 16 17 16 15 14 14 13 12 10 8 7 7 7 9 12 14 16 19 21 23 25 26 26 27 27 28 28 28 28 29 28 26 24 25 24
7 8 9 10 12 13 14 16 16 17 17 16 15 14 14 12 10 8 7 7 6 7 8 11 14 16 18 21 23 25 26 27 27 27 28 28 28 29 29 28 27 26 26
7 8 10 11 12 13 14 15 16 17 17 16 15 14 14 13 11 9 8 6 6 6 6 8 11 13 16 18 21 23 25 26 27 28 29 29 29 29 29 29 29 28 27
7 8 10 11 12 13 14 15 16 16 16 16 15 14 14 13 12 11 8 7 5 4 5 7 9 11 13 15 18 20 23 26 27 28 28 29 30 29 30 29 30 30 29
7 8 9 10 11 12 13 14 15 16 16 16 15 15 14 13 13 11 9 7 6 4 4 5 7 9 12 14 16 18 21 24 27 28 29 30 31 31 31 31 31 31 31
7 8 9 10 11 12 13 14 15 15 16 16 15 15 14 14 13 12 10 8 7 5 4 5 6 8 11 13 14 17 19 22 25 27 29 29 30 32 33 32 32 33 33

GEFSSE_500_meanwind_102.txt.gz
Wind_Speed
12 13 13 14 14 14 15 15 15 15 14 15 15 16 16 16 16 17 17 17 16 15 15 14 13 13 13 12 12 11 12 12 11 11 10 9 8 6 5 3 2 2 3
13 14 14 15 15 16 16 16 16 16 17 17 18 18 19 18 17 17 18 18 18 17 16 16 15 14 14 13 13 12 12 12 12 11 10 9 8 7 6 4 3 2 2
14 15 16 16 16 17 18 19 20 20 20 20 20 21 21 21 20 19 20 20 20 19 18 17 16 16 15 15 14 13 13 12 12 11 11 10 9 8 7 6 5 3 2
16 17 17 17 18 19 20 21 21 22 22 21 22 22 22 22 22 22 21 21 22 21 20 19 19 18 17 16 15 14 13 13 12 12 11 11 10 9 8 7 6 4 3
16 17 17 17 17 18 19 20 21 23 23 23 23 23 23 23 22 22 23 23 23 22 21 20 20 20 19 18 17 15 14 13 13 12 12 12 11 11 10 8 7 6 4
15 15 15 15 16 17 17 18 20 22 23 23 23 24 24 24 23 23 24 23 23 23 22 22 21 20 21 19 18 17 15 14 13 13 13 12 12 12 11 10 8 7 6
14 14 14 14 15 15 16 17 18 19 20 22 23 23 24 24 24 25 24 24 24 24 24 24 24 22 21 21 20 19 17 16 14 14 13 13 13 12 12 11 10 8 7
13 12 13 13 13 14 15 15 16 17 18 19 20 21 22 23 24 25 25 26 25 25 25 25 24 24 22 22 22 21 19 18 16 15 15 14 14 13 13 12 11 10 9
12 11 11 12 12 13 14 14 15 16 17 18 19 20 21 22 23 24 25 26 26 26 26 25 25 24 24 23 23 23 22 20 18 17 16 15 15 14 14 13 12 11 10
11 11 11 11 11 12 13 14 15 16 17 17 18 19 20 21 22 23 24 25 26 28 27 26 25 25 26 25 24 24 24 22 20 18 17 17 16 15 15 14 13 13 12
10 10 11 12 12 13 14 15 16 17 17 18 18 18 18 19 20 21 21 23 24 25 26 26 26 24 25 26 25 24 25 24 22 20 19 18 17 16 16 15 14 14 13
10 10 11 12 13 14 15 16 17 17 18 18 18 17 18 18 19 19 20 21 22 23 24 25 25 26 25 25 25 25 25 25 23 21 21 20 19 18 17 16 15 14 14
10 10 12 13 14 15 16 16 17 18 18 18 18 18 18 18 19 19 19 20 21 21 22 23 24 25 25 26 25 25 25 25 24 23 22 22 20 19 18 17 16 15 15
10 10 12 13 14 15 16 17 17 18 19 19 19 19 18 18 19 19 19 19 19 20 21 22 23 23 23 24 25 25 25 25 25 24 23 23 21 20 19 18 17 16 16
10 11 12 13 14 15 16 17 18 19 20 20 19 19 19 19 18 18 18 17 17 18 19 21 22 23 23 23 24 24 24 25 26 25 25 24 23 21 20 19 18 17 17
10 11 12 13 15 16 16 17 19 20 20 20 20 19 19 18 18 17 17 16 16 17 17 19 20 22 22 22 23 24 24 25 25 25 25 25 24 22 22 20 19 19 18
10 11 12 13 15 16 17 18 19 20 20 20 19 19 19 18 18 17 16 15 15 16 16 16 18 19 20 21 22 23 24 25 25 26 25 25 25 24 23 21 20 19 19
10 11 12 14 15 16 17 18 19 20 20 20 19 19 18 18 18 17 16 15 14 14 14 14 16 18 19 19 21 23 23 25 25 27 26 25 25 25 23 22 21 21 20
10 11 12 14 15 16 17 18 19 20 20 20 19 19 18 18 17 16 15 13 12 11 12 13 14 16 18 18 20 21 22 24 25 27 27 26 25 25 24 23 22 21 21
10 11 13 14 15 16 17 18 19 20 20 20 19 18 18 17 16 15 14 12 11 10 10 11 11 13 16 17 18 20 21 23 24 26 27 27 26 25 25 24 23 22 22
10 11 12 14 15 16 17 18 19 19 20 19 19 18 17 17 16 15 13 11 10 9 9 9 9 11 13 15 17 18 20 22 22 24 26 27 26 26 25 25 24 24 23
10 11 12 13 15 16 17 17 18 19 19 19 19 18 17 16 15 15 14 11 10 8 7 7 7 9 11 12 15 17 19 20 22 23 25 27 26 26 25 25 26 25 24
10 11 12 13 15 15 16 17 18 19 19 19 19 17 17 16 15 14 13 12 9 7 6 6 5 7 9 11 13 14 17 19 21 23 24 26 27 27 26 25 26 26 25
10 10 12 13 14 15 15 17 18 18 19 19 18 17 16 16 15 14 13 12 9 7 7 6 5 5 7 9 12 13 15 17 19 22 23 25 26 26 26 25 26 26 25
10 10 11 12 13 14 15 16 17 18 18 18 18 17 16 16 15 14 13 11 9 7 6 5 5 5 6 8 10 12 14 16 17 20 22 24 25 25 25 25 26 27 27
10 10 11 12 12 13 14 15 16 17 18 18 18 17 16 15 15 14 13 11 9 8 6 5 5 5 5 7 9 11 13 15 17 18 20 22 23 24 25 26 26 26 28

GEFSSE_500_meanwind_108.txt.gz
Wind_Speed
10 10 11 12 12 13 14 14 14 15 15 16 17 17 17 18 18 18 19 20 19 19 18 18 18 17 16 16 15 14 13 13 12 12 12 11 9 8 7 5 3 2 1
11 11 12 13 14 15 15 16 16 16 17 18 18 19 19 19 20 20 21 20 20 20 20 19 19 19 18 17 16 15 14 13 13 13 12 11 10 9 8 6 4 3 1
11 12 12 14 15 15 16 16 17 18 19 19 19 20 21 21 21 22 23 23 22 23 22 21 21 21 20 18 17 16 15 13 13 13 13 12 11 10 8 7 5 4 2
12 12 13 13 14 14 15 16 17 18 19 20 21 22 23 23 24 23 24 24 24 25 24 23 22 22 21 20 19 18 16 15 13 13 13 12 11 10 9 8 6 5 3
12 11 11 11 12 12 13 14 15 16 17 19 20 21 22 23 24 25 25 25 24 25 25 24 24 23 22 22 21 19 18 16 15 14 13 13 12 11 10 9 7 6 4
10 9 9 10 10 11 12 12 13 14 15 16 17 18 20 21 22 23 24 24 24 24 25 25 25 24 23 22 21 20 19 17 16 15 14 14 13 12 12 10 9 7 5
9 9 8 9 9 10 10 10 11 12 13 14 15 16 17 18 20 21 22 23 23 24 24 25 26 26 25 24 23 21 20 19 18 17 15 15 14 13 13 11 10 9 7
9 8 8 8 9 9 9 9 10 11 12 13 14 15 16 17 17 18 19 21 22 23 24 24 25 25 25 25 24 22 20 20 19 18 17 16 15 14 14 13 11 10 9
8 8 8 8 8 9 9 10 11 11 12 13 14 14 15 16 16 17 18 20 21 22 23 24 24 24 24 24 25 24 23 21 20 20 18 17 16 15 14 13 13 11 10
7 7 7 8 8 9 10 11 12 13 13 14 14 14 15 15 15 16 17 18 20 21 22 23 23 23 23 23 24 26 25 22 21 21 20 18 17 16 15 14 14 13 12
6 6 7 7 8 9 10 11 12 13 14 14 14 15 15 15 16 16 17 17 18 19 21 22 23 24 24 24 23 24 26 25 22 22 21 20 19 18 16 15 15 14 13
5 6 6 7 8 10 11 11 12 13 14 15 15 15 16 16 16 16 16 16 17 17 19 20 22 23 23 24 24 24 25 26 25 23 22 21 21 19 18 17 16 15 14
6 6 7 8 9 10 11 12 13 14 15 16 17 17 17 16 16 16 16 16 17 17 17 18 20 22 22 23 24 25 25 25 25 25 24 23 22 20 19 18 17 16 16
6 6 7 8 9 10 11 12 13 14 15 16 17 17 17 16 16 16 15 16 16 16 16 17 18 20 21 22 23 24 25 26 25 25 25 24 23 22 20 19 18 17 17
6 7 8 9 10 11 11 13 14 15 16 17 18 18 17 17 16 16 15 15 15 15 16 16 16 18 20 21 22 24 24 25 25 26 26 26 24 23 22 20 19 18 18
7 8 8 9 10 11 12 13 14 16 17 17 18 18 17 17 16 16 15 14 13 13 14 15 16 16 18 19 21 23 24 24 25 26 27 26 25 24 23 22 20 19 19
7 8 8 10 11 12 13 14 15 17 17 18 18 18 17 17 16 16 15 14 13 13 12 13 15 16 17 18 20 22 24 25 25 26 27 27 26 25 24 23 22 21 20
6 8 9 10 11 12 13 14 16 17 18 18 18 18 17 17 17 16 15 14 13 11 11 11 13 14 16 18 19 20 22 25 25 26 27 28 27 26 24 24 23 22 22
6 8 9 10 11 12 13 15 16 17 18 18 18 18 17 17 16 15 14 13 12 11 10 11 12 13 15 17 18 19 20 24 25 26 27 27 27 27 26 25 25 24 23
6 7 9 10 11 12 13 15 16 17 18 18 18 18 17 17 16 15 14 13 12 11 10 10 10 11 13 15 17 19 19 21 24 25 26 26 26 26 26 27 26 25 24
6 8 9 10 11 12 13 14 16 17 18 18 18 18 17 17 16 15 14 13 11 10 9 8 8 10 11 13 15 17 19 19 22 23 25 27 27 27 27 28 27 26 25
6 8 9 10 11 12 13 14 15 16 17 18 18 18 18 17 16 15 14 12 11 9 8 6 6 8 10 11 13 15 17 18 21 22 24 25 27 27 27 27 27 26 26
6 8 9 10 11 11 12 13 14 15 17 17 18 18 18 16 15 14 13 12 10 8 7 6 5 6 8 10 11 13 15 17 19 21 23 25 26 27 27 26 26 26 26
7 8 9 10 11 11 11 12 13 15 16 17 18 18 17 16 15 14 12 11 10 8 6 5 4 4 7 9 10 11 12 15 18 20 22 24 26 27 27 27 26 26 27
7 8 9 10 10 10 10 11 13 14 16 16 17 17 17 16 14 14 12 11 10 8 6 5 3 3 4 6 9 10 12 13 16 18 20 22 25 27 27 28 28 26 26
7 8 9 9 10 10 10 11 12 14 15 16 16 17 17 16 14 13 13 11 10 9 7 5 3 3 3 5 7 9 11 12 14 16 18 20 22 24 26 27 27 27 27

GEFSSE_500_meanwind_114.txt.gz
Wind_Speed
9 9 9 11 12 13 13 14 14 15 15 15 15 15 15 16 16 16 16 16 16 16 17 16 16 15 14 13 13 12 12 11 10 9 9 8 7 6 5 4 3 2 2
9 9 9 11 12 12 12 13 14 15 16 16 16 16 16 16 17 17 17 17 18 18 18 18 18 17 16 15 14 13 13 12 11 10 10 9 8 7 6 5 4 2 2
9 9 10 11 11 11 12 13 13 14 14 15 15 16 17 17 18 18 18 19 20 20 19 19 19 18 18 17 16 15 13 12 11 11 10 9 8 7 6 5 4 2 1
8 9 9 10 10 10 11 12 12 13 13 14 14 15 15 16 17 18 19 20 21 21 21 21 20 20 19 18 17 16 15 14 13 12 10 10 9 8 7 6 4 2 1
8 8 8 8 9 10 10 11 11 11 12 12 13 13 14 15 16 17 19 20 20 21 22 22 22 21 20 19 18 17 16 15 14 13 12 10 9 8 8 6 5 3 2
7 7 7 8 9 9 10 10 10 10 11 11 12 13 14 14 15 16 17 18 19 20 21 21 22 21 20 19 19 18 17 16 15 14 13 12 10 9 8 8 7 5 4
7 7 7 8 8 9 9 9 10 10 11 11 12 13 13 14 15 15 16 17 18 19 19 19 20 20 20 20 20 19 19 17 16 15 14 13 11 10 9 9 8 7 6
7 7 7 7 7 8 8 9 10 10 11 11 12 13 14 14 15 15 15 16 17 18 19 19 19 20 20 20 20 20 20 19 17 16 15 14 13 12 11 10 9 8 8
7 7 7 7 7 8 8 9 10 10 11 11 12 13 14 15 15 15 16 16 16 17 18 19 19 20 20 21 21 20 20 20 19 17 16 15 14 13 12 12 10 10 9
8 7 7 7 7 8 9 9 10 10 11 12 13 13 14 15 15 15 16 16 16 17 17 18 19 20 20 20 20 20 20 20 20 18 17 16 16 15 14 13 12 12 11
7 7 7 7 7 8 9 10 10 11 12 13 13 14 15 15 16 16 16 16 16 16 16 17 18 19 19 20 20 20 20 20 21 20 19 17 17 17 15 14 14 13 13
6 7 7 7 8 8 9 10 10 11 12 13 14 15 15 16 16 17 17 16 16 16 16 16 17 18 18 19 20 20 20 20 21 22 20 19 18 18 17 16 15 15 14
6 6 6 7 8 9 9 10 10 11 13 14 15 15 16 16 17 17 17 16 16 16 16 16 17 17 18 19 20 21 21 20 20 22 21 21 20 19 19 18 16 16 16
6 6 6 7 8 9 9 10 11 12 14 15 15 16 16 16 16 16 16 16 16 15 15 16 16 17 17 18 19 20 20 21 21 22 22 22 22 21 20 19 18 17 17
6 7 7 7 8 9 9 10 12 13 14 15 16 16 16 16 16 16 16 16 15 15 15 15 15 16 17 17 18 19 20 20 21 22 22 23 23 23 22 20 20 19 18
7 7 7 8 9 9 10 11 12 14 15 16 16 16 16 16 16 16 16 16 15 14 14 14 14 15 16 16 17 18 20 21 22 22 22 23 24 24 23 21 20 20 19
7 7 7 8 9 9 10 11 12 14 15 16 16 16 16 17 16 16 16 15 15 14 14 13 13 14 14 15 16 17 19 21 22 23 23 23 24 24 24 23 21 21 21
7 7 8 8 9 9 10 11 12 14 15 15 16 16 16 17 16 16 16 15 14 13 13 13 12 12 13 14 16 17 18 20 22 23 24 24 24 25 25 24 22 22 23
7 7 8 8 9 9 10 11 12 13 14 15 16 16 17 16 16 16 15 15 13 13 12 11 11 11 11 13 15 16 17 19 20 22 23 24 24 24 25 25 24 23 23
8 7 8 8 9 10 10 11 12 13 14 15 16 16 17 16 16 15 15 14 13 12 11 11 10 10 10 11 13 15 17 18 19 21 23 24 25 25 26 26 25 25 24
8 7 7 8 9 10 11 11 12 13 14 15 16 16 17 16 16 15 15 14 13 12 11 10 10 10 10 10 12 14 16 17 18 20 21 23 24 25 26 27 26 25 25
8 7 8 8 9 10 10 11 12 13 14 15 16 16 17 16 16 15 15 13 12 11 10 10 10 9 10 10 11 12 13 15 17 18 20 22 24 25 25 26 26 26 26
8 8 8 8 9 9 10 11 12 12 13 14 15 16 17 17 16 15 14 13 11 10 10 9 8 8 8 9 9 11 12 13 15 16 18 20 22 24 25 26 27 26 26
8 8 8 8 9 9 10 11 11 12 13 14 15 16 17 17 16 15 14 13 11 10 10 9 8 7 7 7 9 10 11 12 13 14 16 18 20 22 23 25 26 26 26
8 8 8 9 9 9 10 11 11 12 13 14 15 16 17 17 17 15 14 13 12 10 9 8 8 6 6 6 7 9 10 11 12 13 15 17 19 21 23 24 25 26 26
8 8 9 9 10 9 10 11 11 12 13 13 14 15 17 17 17 15 14 13 12 10 9 8 7 6 4 5 6 7 9 10 11 12 14 16 18 20 22 23 24 25 26

GEFSSE_500_meanwind_120.txt.gz
Wind_Speed
5 5 6 6 7 7 7 7 8 9 9 10 10 11 10 11 11 12 12 12 12 12 12 12 12 12 11 10 10 9 8 7 6 6 6 6 5 5 4 4 3 2 1
5 5 6 6 6 7 7 8 9 9 10 10 10 10 10 11 11 12 13 13 14 14 13 13 13 13 13 12 11 10 9 8 8 7 7 6 6 6 5 5 5 3 2
5 5 6 6 6 6 7 8 9 10 10 10 10 10 10 10 11 11 12 13 14 15 15 15 15 14 14 13 13 12 11 10 9 9 8 7 7 7 6 6 5 4 3
5 5 5 5 6 6 7 8 9 10 10 10 10 10 10 10 10 11 12 12 13 15 15 16 16 16 15 15 14 13 13 11 11 10 9 8 7 7 7 7 6 6 5
4 5 5 5 6 7 8 8 9 9 9 9 9 9 10 10 11 12 12 13 13 14 15 16 16 16 16 16 16 15 14 13 12 11 11 10 8 8 8 8 8 7 6
4 4 5 6 7 7 7 8 8 8 9 9 9 10 10 11 12 12 13 13 14 14 15 15 15 16 16 16 15 15 15 15 14 13 12 11 10 10 10 9 9 8 7
4 5 5 6 6 6 7 7 8 8 9 9 10 10 10 11 12 13 13 13 13 13 14 15 15 15 16 16 16 15 16 16 15 15 13 12 12 11 11 11 10 10 9
4 5 6 6 6 6 6 7 8 9 9 9 10 11 12 12 13 13 13 13 13 13 14 14 15 15 16 16 16 16 16 16 16 15 15 14 13 13 13 12 12 11 10
5 5 5 5 6 6 7 7 8 9 9 10 11 12 13 13 13 13 13 13 14 14 14 14 14 15 16 16 15 15 15 16 17 17 16 16 15 15 14 14 13 13 11
5 5 5 6 6 7 7 8 9 9 10 11 12 13 14 14 14 14 14 14 14 14 14 14 14 14 15 15 16 16 17 16 17 18 17 17 17 17 16 15 15 15 13
6 6 5 6 7 7 8 9 9 10 11 12 13 14 14 15 15 14 14 14 14 14 14 14 14 14 15 15 16 17 17 17 17 19 19 18 18 18 18 17 17 16 15
6 6 6 7 7 8 8 9 10 10 11 12 13 14 14 15 15 14 14 15 15 15 15 15 15 15 15 16 16 17 17 17 18 19 20 20 19 19 19 19 18 17 17
7 7 7 7 8 8 9 9 10 11 12 13 14 14 14 15 15 15 15 15 15 15 15 15 15 15 16 16 16 17 17 18 18 19 20 21 21 20 20 20 20 18 18
7 7 7 8 8 8 9 10 11 12 13 13 14 14 15 15 15 15 15 15 15 15 15 15 15 15 16 16 15 16 17 18 19 19 19 21 22 22 21 21 21 20 19
8 8 8 8 8 9 9 10 11 12 13 13 14 14 15 15 15 16 16 16 16 15 15 15 15 14 15 15 15 16 17 18 19 20 20 22 23 23 22 23 22 21 20
9 9 9 8 8 9 10 11 11 12 13 14 14 15 15 15 16 16 16 16 16 16 15 15 14 14 14 14 15 16 17 18 20 21 21 22 24 24 24 24 24 23 22
9 9 9 9 9 10 11 11 12 13 13 14 14 15 15 16 16 16 16 16 16 15 15 14 13 13 13 13 14 16 17 18 19 21 22 22 23 24 24 24 25 24 23
10 10 9 9 10 10 11 12 12 13 13 14 15 15 15 16 16 16 16 16 16 15 14 13 12 12 12 12 13 15 16 18 19 21 22 22 23 24 25 25 26 25 25
10 10 9 9 10 10 11 12 12 13 13 14 14 15 15 16 16 16 16 15 15 14 13 12 12 11 11 11 12 14 15 17 18 20 21 22 23 24 25 25 27 26 25
9 10 10 9 10 10 11 11 12 13 13 14 14 14 15 15 16 16 16 15 15 14 13 12 11 11 11 11 12 13 14 17 17 19 20 22 23 24 25 26 26 27 26
9 9 10 10 10 10 11 11 12 13 13 13 14 14 15 15 16 16 16 16 15 14 12 11 10 10 10 10 11 12 13 16 17 18 20 21 23 24 26 26 27 26 27
9 9 9 9 10 10 11 11 12 13 13 13 14 14 15 16 16 16 16 15 14 13 12 11 10 9 9 9 10 11 13 15 16 18 19 20 22 23 25 26 26 27 28
9 9 9 10 10 11 11 11 12 13 13 13 14 15 15 16 16 17 16 15 14 13 12 10 9 9 9 8 9 10 12 14 15 17 18 19 21 23 25 26 27 27 27
9 9 9 10 11 11 11 11 12 13 13 14 14 15 15 16 16 17 16 16 15 13 12 11 10 8 8 8 8 9 10 12 15 17 17 18 20 22 24 26 27 27 27
9 9 9 10 11 11 11 12 13 13 14 14 15 15 16 16 16 17 17 16 15 13 12 11 9 8 7 7 8 8 9 11 13 15 17 18 19 21 23 25 26 27 27
8 9 10 10 11 12 12 12 13 14 14 15 15 16 16 16 17 17 17 16 14 13 12 11 9 8 7 6 7 8 8 10 12 14 16 17 18 19 21 23 25 26 26

GEFSSE_500_meanwind_126.txt.gz
Wind_Speed
5 5 6 6 6 6 6 6 7 7 8 9 9 10 10 10 10 10 11 11 11 11 12 11 11 12 11 11 11 10 10 9 9 8 7 7 7 6 5 5 4 3 2
5 5 6 6 6 6 6 7 8 8 9 10 10 10 10 10 10 10 10 11 11 12 12 12 12 12 12 12 12 11 11 11 10 10 9 8 7 7 6 5 5 4 3
5 6 6 6 6 6 7 8 8 9 9 9 10 10 10 10 10 11 11 11 11 12 13 13 14 13 13 13 13 13 13 13 12 11 10 9 9 8 7 6 5 4 3
5 6 6 6 6 7 8 8 9 9 9 9 9 9 10 10 10 11 12 12 12 12 13 13 14 14 14 14 14 14 14 14 14 12 11 10 10 9 9 8 6 5 4
6 7 7 6 7 8 8 8 8 9 9 9 9 9 10 11 11 12 12 12 12 13 13 13 13 14 14 14 13 14 14 15 15 14 12 11 11 10 10 9 7 6 5
6 6 7 6 7 7 8 8 8 9 9 9 10 10 11 12 12 12 13 13 13 13 13 13 13 13 13 13 14 14 14 14 15 14 14 13 12 11 11 10 8 7 6
6 6 7 7 7 8 8 8 8 9 10 10 10 11 12 12 13 13 13 13 13 13 13 13 13 12 13 13 13 14 15 14 15 15 14 14 14 13 12 11 10 9 7
6 7 7 7 7 8 8 9 9 10 11 11 11 12 13 13 14 14 14 14 13 13 13 13 13 12 12 13 13 13 14 15 15 15 15 14 15 14 13 12 11 10 9
6 6 7 7 7 8 8 9 9 10 11 11 12 12 13 14 14 14 14 14 14 13 13 13 13 13 13 13 13 13 14 15 16 15 15 15 16 15 14 13 12 11 10
6 7 7 7 7 8 9 9 9 11 11 12 12 13 14 14 14 14 14 14 14 14 14 14 13 13 13 13 13 13 14 15 16 16 15 16 17 16 15 14 13 13 12
7 7 7 7 8 8 9 9 10 11 12 12 13 14 14 14 14 14 14 14 14 14 14 14 14 14 13 13 14 14 14 14 15 16 15 17 17 17 16 15 14 14 13
7 7 8 8 9 9 10 10 11 12 12 13 13 14 14 15 15 15 15 14 14 14 14 15 15 14 14 14 14 14 14 15 15 15 16 17 17 18 17 16 16 15 14
7 8 8 9 9 9 10 11 12 12 13 14 14 15 15 15 15 15 15 15 14 15 15 15 15 15 14 14 14 14 14 15 15 15 16 17 17 18 18 17 17 17 16
8 8 9 9 9 10 10 11 12 13 14 14 15 15 15 15 15 15 15 15 15 15 16 16 15 15 14 14 14 14 15 15 15 16 16 17 17 18 18 19 18 18 17
8 8 8 9 9 9 10 11 12 13 14 14 15 15 15 15 15 16 16 16 16 16 16 16 15 15 14 14 13 13 14 14 15 16 16 17 17 18 19 19 19 18 18
7 8 8 9 9 9 10 11 12 13 14 14 14 15 15 15 16 16 16 16 16 16 16 15 15 15 14 13 13 13 13 14 15 15 15 17 18 18 19 20 19 19 18
7 8 9 9 9 10 10 11 12 13 14 14 14 15 15 15 16 17 17 17 16 16 16 15 15 14 13 13 12 12 12 13 14 15 15 16 17 18 19 20 20 19 19
8 8 9 9 9 10 10 11 12 12 13 14 15 15 15 16 17 17 17 17 17 17 16 15 14 14 13 12 11 11 11 13 14 14 15 16 17 19 19 20 21 21 19
7 8 8 8 8 9 10 11 11 12 13 14 15 16 16 17 18 18 18 18 17 17 16 15 14 13 13 12 11 10 10 11 13 14 15 16 18 19 20 20 21 21 21
7 7 7 8 8 9 10 10 11 12 12 13 15 16 17 17 18 18 18 18 18 17 16 15 14 13 12 11 11 10 10 11 12 13 15 15 17 19 19 20 21 21 21
6 6 7 7 8 9 10 10 10 11 12 14 15 16 17 18 18 18 18 18 18 18 16 16 15 13 12 12 11 10 10 10 12 12 14 16 16 17 19 19 20 22 21
6 6 7 7 8 9 9 10 10 11 12 14 15 16 17 18 18 18 19 19 19 18 17 16 15 13 13 11 10 9 9 10 11 11 13 15 16 17 18 19 21 21 21
6 6 6 7 8 9 10 10 10 11 13 14 15 16 17 18 18 19 19 19 19 18 17 16 15 14 13 11 10 9 9 9 10 11 12 14 16 17 18 18 19 21 21
6 6 6 7 8 9 9 10 11 12 13 14 15 16 17 18 18 19 19 19 19 18 17 16 16 14 13 12 10 9 9 9 9 10 12 14 15 16 17 18 19 20 21
6 6 6 7 9 10 10 11 12 12 13 14 15 16 17 18 18 19 19 19 19 18 17 17 16 15 13 12 10 9 9 9 9 9 11 13 15 16 16 18 19 20 20
5 6 6 7 9 10 11 11 12 13 14 14 15 16 17 18 18 19 19 19 19 18 17 17 17 15 14 12 11 10 9 9 8 9 10 12 14 16 16 18 19 20 20

GEFSSE_500_meanwind_132.txt.gz
Wind_Speed
2 3 4 4 4 4 5 5 6 6 7 7 8 8 7 8 8 8 8 8 9 10 10 11 12 12 11 11 11 12 12 12 12 11 10 9 9 8 7 7 6 5 4
2 3 3 4 4 5 5 6 6 7 7 7 7 8 8 8 8 8 8 8 9 10 10 11 11 12 12 12 12 12 12 12 13 12 11 10 10 9 8 7 6 6 5
2 3 3 4 4 5 6 6 6 7 7 7 7 7 8 8 8 8 9 9 9 9 10 10 11 12 12 12 12 12 12 12 13 13 12 11 11 10 9 8 7 6 5
2 3 4 4 4 5 6 6 6 6 7 7 7 7 8 8 9 9 9 10 10 10 10 11 11 12 12 12 13 13 12 12 12 13 13 12 11 10 9 8 7 6 5
2 3 4 4 4 5 6 6 6 6 7 7 8 8 9 9 9 10 10 10 11 11 11 11 12 12 12 12 12 13 13 12 12 12 13 12 12 11 10 9 8 7 6
2 3 3 4 4 5 6 6 6 6 7 8 8 9 9 10 10 11 11 12 12 12 12 11 11 11 11 12 12 12 12 12 12 12 13 12 12 12 11 10 9 8 7
2 3 3 4 5 5 5 6 6 6 7 8 8 9 10 10 11 11 12 12 12 12 11 11 11 11 11 11 12 12 12 11 11 11 12 13 13 12 12 11 10 9 7
1 2 4 4 5 5 5 5 6 7 8 9 9 10 10 11 11 11 12 12 12 12 11 11 11 11 11 11 11 11 12 11 11 11 12 12 13 13 12 12 11 10 9
1 2 3 4 4 5 5 6 6 7 8 9 10 10 11 11 12 12 12 12 12 12 12 11 11 11 11 11 11 11 12 11 12 12 12 12 13 13 13 13 12 11 10
1 2 3 3 4 4 5 6 7 8 9 9 10 10 11 11 12 12 12 12 12 12 12 11 11 11 11 12 12 12 12 12 12 12 13 12 13 14 14 13 12 11 11
1 2 3 3 4 5 6 6 7 8 9 10 10 11 11 11 12 12 12 12 12 12 12 11 11 11 11 11 11 12 12 12 11 11 12 12 13 14 14 14 13 12 11
2 2 3 4 4 5 6 6 7 8 9 10 10 11 11 11 12 12 12 12 12 12 12 12 12 12 11 11 11 11 12 12 12 11 11 12 13 14 15 15 14 13 12
2 3 3 3 4 5 6 7 7 8 9 9 10 11 11 11 11 12 12 13 12 12 13 13 12 12 12 11 11 11 11 12 12 12 12 12 13 14 15 15 15 14 14
3 3 4 4 4 5 6 7 7 7 8 9 10 11 11 11 12 12 13 13 13 13 13 13 13 12 11 11 11 11 11 12 12 12 13 13 13 14 15 15 16 15 15
3 3 4 5 5 5 6 6 6 7 8 9 10 10 11 11 12 12 13 14 14 13 13 13 12 12 11 11 11 11 11 11 12 13 13 14 14 14 15 16 17 16 16
3 4 4 4 5 5 6 6 6 6 7 9 10 11 11 12 12 13 13 13 13 13 13 13 12 12 11 11 10 9 9 10 11 13 13 14 14 15 16 16 17 18 18
3 4 4 4 4 5 5 6 5 6 7 8 9 11 12 12 12 13 13 13 13 13 13 13 12 11 11 10 9 9 9 9 10 12 13 14 14 15 16 17 17 18 18
3 3 4 4 5 5 5 5 5 6 6 7 9 10 11 12 12 13 13 14 14 14 14 13 12 11 10 10 9 9 8 8 9 11 12 13 14 16 17 17 18 18 19
3 3 3 4 4 4 5 5 5 6 6 7 9 10 11 12 12 13 14 14 14 14 14 13 12 11 11 10 9 8 8 7 8 10 12 13 13 15 17 18 18 18 18
3 3 3 3 3 4 4 4 5 6 6 7 8 10 11 12 13 14 14 14 15 14 14 13 13 12 11 10 9 8 7 7 8 9 11 13 13 14 16 17 18 19 18
2 2 2 2 2 3 4 4 4 5 6 7 8 9 10 11 13 14 14 15 15 15 14 13 13 12 12 11 9 8 7 7 8 9 11 12 13 14 15 17 18 18 19
2 1 1 2 2 3 4 4 5 6 7 8 9 10 11 12 13 14 14 15 15 15 15 14 13 13 12 11 10 8 7 6 7 9 10 12 13 15 16 17 17 18 19
3 2 1 1 2 3 4 4 5 6 7 8 9 9 10 11 12 13 14 14 15 15 15 15 14 14 13 12 10 9 7 6 6 7 10 12 13 15 16 17 17 18 19
3 2 2 2 2 3 4 5 5 6 7 8 9 10 10 11 12 13 14 14 15 16 16 15 15 15 14 13 11 9 7 7 6 6 8 11 13 14 15 17 17 18 18
3 2 2 2 3 3 4 5 5 6 7 8 8 9 10 11 12 13 14 15 15 16 16 16 15 15 15 13 12 10 8 7 6 6 7 9 11 13 15 16 17 18 18
2 2 2 3 3 3 4 4 5 6 8 9 9 10 11 12 13 14 14 15 16 16 17 16 16 16 15 14 12 11 9 8 7 7 7 8 10 13 15 16 17 18 19

GEFSSE_500_meanwind_138.txt.gz
Wind_Speed
2 2 2 3 3 4 5 5 6 7 7 8 8 8 8 9 8 8 8 8 9 9 9 10 10 10 10 10 9 9 8 9 8 8 8 8 7 7 6 6 5 5 5
1 1 2 2 3 4 5 6 6 7 8 8 8 8 9 9 9 9 9 9 9 10 10 10 10 10 10 10 9 9 8 8 8 8 8 8 8 8 7 7 6 6 5
1 1 1 2 3 4 5 6 6 7 8 8 8 9 9 9 9 9 10 10 10 10 10 11 11 11 10 10 9 9 9 8 9 8 8 8 8 8 8 7 7 6 6
1 1 1 2 2 4 5 6 6 7 8 8 9 9 10 10 10 10 10 11 11 11 11 11 11 11 11 10 10 9 9 9 9 9 9 9 8 8 8 8 7 7 6
1 1 0 1 3 4 5 6 6 7 8 8 9 9 10 10 11 11 11 11 11 11 11 11 11 11 11 10 10 10 9 9 9 9 9 8 9 8 8 8 8 7 6
2 1 0 1 3 4 5 6 6 7 8 9 9 10 10 11 11 11 11 11 11 11 11 11 11 11 11 10 10 10 9 9 9 9 8 8 8 8 8 8 8 7 7
1 1 0 2 3 4 5 6 7 7 8 9 10 10 11 11 11 11 11 11 11 11 11 11 11 11 11 11 10 10 9 9 9 9 9 8 9 9 8 8 8 8 7
2 1 1 2 4 5 6 6 7 7 8 9 10 10 11 11 12 11 11 11 11 11 11 11 11 11 11 10 10 10 9 9 9 9 9 9 9 9 9 9 9 9 9
2 1 2 3 4 4 5 6 7 7 8 9 10 10 10 11 11 11 11 11 11 11 11 11 11 11 11 10 9 9 8 8 9 9 9 9 9 10 10 10 9 9 9
2 2 3 3 4 5 6 6 7 8 8 9 9 10 10 11 11 10 10 11 11 11 11 11 11 11 10 10 9 9 9 8 8 9 9 9 10 10 10 11 11 10 9
2 3 4 4 4 5 6 7 7 8 8 9 9 10 11 11 10 10 10 11 11 11 11 11 11 11 10 9 9 9 9 9 9 8 9 9 10 11 10 11 12 11 10
2 3 3 4 4 5 6 7 7 8 8 9 10 10 11 11 11 11 11 11 11 11 11 11 11 11 10 10 9 9 9 9 9 9 9 9 10 11 11 12 12 12 11
2 3 3 4 5 5 6 6 7 8 8 9 10 10 11 11 11 11 11 11 12 12 12 12 12 11 11 10 10 9 9 9 9 10 10 10 10 11 12 13 13 13 12
3 3 4 5 5 6 6 6 7 7 8 9 9 10 11 11 11 11 12 12 12 12 12 12 12 12 11 10 9 9 8 8 9 9 10 10 11 11 12 13 14 14 13
4 4 5 5 5 6 6 6 6 7 8 8 9 11 11 12 12 12 12 12 12 12 12 12 12 11 11 10 9 8 7 7 8 9 10 10 11 11 11 12 14 14 15
4 5 5 5 6 6 6 6 7 7 8 8 9 10 11 11 12 12 12 13 13 13 13 13 12 11 11 10 9 8 7 6 7 8 9 10 10 11 11 12 14 15 15
4 4 5 5 5 6 6 6 6 7 7 8 9 10 10 11 12 12 13 13 13 13 13 13 12 12 11 10 9 8 7 6 7 8 9 10 10 11 12 13 14 15 16
4 4 4 5 5 5 6 6 6 6 7 8 8 9 10 11 12 12 13 14 13 13 13 13 13 12 11 10 9 8 7 6 5 7 9 10 11 11 11 13 14 15 17
4 4 4 4 4 5 5 6 6 6 7 8 8 9 10 11 12 12 13 14 14 14 14 13 13 12 11 10 10 9 8 6 5 6 8 9 10 11 11 13 14 15 16
4 4 4 4 4 5 5 5 6 6 7 7 8 9 10 11 12 13 13 14 14 14 14 13 13 12 11 11 10 9 9 7 4 5 7 9 10 11 11 13 14 15 16
5 4 4 4 4 4 5 5 5 6 7 7 8 9 10 11 12 12 13 14 14 14 14 14 13 13 12 12 11 10 9 7 5 4 6 8 10 11 12 13 14 15 16
4 4 4 4 4 4 5 5 5 6 7 8 9 10 11 12 12 12 13 14 15 15 15 14 14 13 13 12 11 11 10 8 6 4 5 7 9 10 12 13 14 15 16
5 4 4 4 4 4 4 4 5 6 7 7 9 10 11 12 12 13 13 14 15 15 15 15 15 14 14 13 12 11 11 9 7 5 4 6 8 10 12 13 14 16 16
5 5 4 4 4 4 4 4 4 5 6 7 8 10 10 11 12 13 13 14 15 16 16 16 16 15 15 14 13 12 11 10 9 7 6 5 7 10 11 13 14 16 16
5 5 4 4 3 4 4 4 4 5 6 7 8 9 10 11 13 13 13 14 15 16 16 17 17 16 15 15 14 13 12 11 10 8 7 6 7 9 11 13 14 16 16
5 5 4 4 4 4 4 4 4 5 6 7 8 9 11 11 12 13 13 14 15 16 16 17 17 16 16 16 15 13 12 12 11 10 8 7 7 8 11 13 14 15 17

GEFSSE_500_meanwind_144.txt.gz
Wind_Speed
2 2 2 2 2 2 2 3 4 4 5 6 5 5 5 5 5 6 6 6 6 6 6 6 6 5 5 5 5 5 5 6 7 7 7 7 7 6 6 7 7 7 7
2 2 2 2 1 2 3 3 4 4 5 6 6 6 6 6 6 6 6 6 6 6 6 6 6 5 5 5 5 5 5 5 5 6 7 7 7 7 7 8 8 8 7
2 2 2 1 1 2 3 4 4 5 6 6 6 6 7 6 6 6 6 7 7 7 7 7 7 6 5 5 5 5 5 5 5 6 7 8 8 8 8 8 8 8 8
3 2 1 1 1 2 3 4 4 6 6 7 7 7 7 8 7 7 7 7 7 8 8 7 7 6 5 5 6 6 5 5 6 6 7 8 8 9 9 9 9 9 9
3 3 1 0 2 3 4 5 5 6 7 8 8 8 9 9 9 8 8 8 8 8 8 8 7 6 5 5 6 6 6 7 6 7 7 9 9 9 9 9 9 9 9
4 3 1 1 2 3 4 5 6 7 8 8 9 9 9 9 9 9 8 8 8 8 8 7 7 7 6 6 6 6 6 7 7 8 8 9 10 10 10 10 10 10 10
4 3 1 1 2 3 4 6 7 7 8 8 9 9 9 9 9 9 9 9 9 9 8 7 7 7 7 7 7 7 7 7 7 8 9 9 10 11 11 11 11 11 10
3 2 1 1 2 4 5 5 6 7 8 8 8 9 9 9 9 9 9 9 9 9 8 7 7 7 7 7 7 7 7 7 7 8 8 9 10 11 11 12 11 11 11
3 2 2 2 3 4 5 6 7 7 8 8 8 9 10 10 9 9 9 9 9 9 9 8 8 8 8 8 8 8 8 8 7 8 8 9 10 11 12 12 12 11 11
3 2 2 3 3 4 4 5 6 7 7 8 9 9 9 9 9 9 9 9 9 9 9 9 9 8 8 8 8 8 8 8 8 8 8 9 10 11 12 13 12 13 12
3 2 3 3 3 4 4 5 6 7 8 8 8 9 9 9 9 9 9 10 10 10 10 9 9 9 9 8 8 8 8 8 8 9 8 9 10 11 11 12 13 13 12
2 2 3 3 3 3 4 5 6 6 7 8 8 9 9 9 9 10 10 10 10 10 10 10 9 9 9 9 8 8 8 8 8 9 8 8 10 11 11 12 13 13 13
2 2 2 2 2 3 4 5 6 6 6 7 8 8 9 9 9 10 10 11 11 10 10 10 10 10 9 9 9 8 7 7 7 8 8 9 10 11 11 12 12 13 13
2 2 2 2 3 3 4 5 5 5 6 7 8 8 8 9 10 10 11 11 11 11 11 11 10 10 10 9 8 7 6 6 7 7 8 9 10 10 11 12 12 12 13
2 1 2 2 3 3 3 4 5 5 6 7 7 8 9 9 10 11 11 11 11 11 11 11 11 10 9 9 8 7 5 5 5 7 7 8 9 10 11 12 12 12 13
2 2 2 2 3 3 4 4 4 5 6 7 8 8 9 10 10 10 11 11 11 11 11 11 11 10 9 9 8 7 6 4 5 6 7 8 9 10 11 11 12 12 13
2 2 2 2 3 3 3 4 4 5 5 6 7 8 9 9 10 11 11 12 12 12 11 11 11 10 9 9 8 7 6 4 3 5 6 7 8 10 10 11 11 12 13
2 2 2 2 3 3 3 4 4 5 5 6 7 8 8 9 10 11 12 12 12 12 11 11 11 10 10 9 8 7 6 4 3 3 5 6 7 9 10 10 12 13 13
3 2 2 2 2 2 3 3 4 4 5 6 7 7 8 9 10 10 11 11 12 12 11 11 10 10 9 9 8 7 6 5 3 1 3 5 7 8 9 10 11 12 13
3 3 2 2 2 2 2 2 3 4 5 6 7 8 8 9 9 10 11 11 12 12 12 11 11 10 9 9 8 7 6 5 4 2 1 4 6 7 8 9 10 12 13
3 2 2 2 2 2 2 2 3 4 4 5 6 7 8 8 9 10 11 12 12 12 12 12 11 10 10 9 8 8 6 6 4 3 1 3 5 6 7 9 10 12 14
3 3 2 2 2 2 2 2 3 3 4 5 6 7 8 8 9 10 10 11 12 13 13 13 12 11 10 9 9 8 7 6 5 3 2 2 4 6 7 8 9 10 12
4 3 3 2 2 2 2 2 3 3 4 4 5 6 7 8 9 9 10 11 12 13 14 14 13 12 11 10 9 8 7 6 5 4 3 2 3 4 6 8 9 10 11
5 4 4 3 3 3 3 3 3 3 3 4 5 5 6 7 8 9 10 11 12 13 13 14 14 13 11 11 10 9 8 7 6 5 4 3 4 4 5 7 9 11 11
6 5 5 4 4 4 4 3 3 3 3 4 4 5 6 7 8 9 10 10 11 12 13 13 14 13 12 11 11 10 8 7 7 5 5 4 5 5 6 8 9 11 12
6 6 6 5 5 5 4 4 3 3 3 3 4 4 5 6 7 9 10 10 11 11 12 13 13 12 12 11 11 10 9 8 8 7 6 5 6 6 7 9 10 11 12

GEFSSE_500_meanwind_150.txt.gz
Wind_Speed
2 1 0 1 2 2 3 4 4 5 6 7 7 7 7 7 7 7 6 6 6 6 6 6 6 7 6 6 6 6 6 6 7 7 7 7 7 7 7 8 8 7 7
2 1 1 1 2 3 3 4 5 6 6 7 7 7 8 8 8 7 7 7 6 6 6 7 7 7 6 6 6 6 6 6 7 7 8 8 8 8 8 8 8 8 8
2 1 1 1 2 3 4 4 5 6 7 7 8 8 8 8 8 8 7 6 7 7 7 7 7 7 6 6 6 6 6 6 6 7 8 8 8 8 9 9 8 8 8
2 1 0 2 2 3 4 5 6 7 7 7 8 8 8 8 8 7 7 7 7 7 7 7 6 6 6 6 6 6 6 7 7 7 7 8 9 9 9 10 9 9 9
2 2 1 2 3 4 5 6 6 6 6 7 8 8 8 8 7 7 7 7 7 7 7 7 7 6 6 6 6 6 6 7 7 7 8 8 9 9 9 10 10 10 10
2 2 1 2 3 4 5 6 6 6 6 7 7 8 8 8 7 8 8 8 8 7 7 7 7 6 6 6 6 6 6 7 7 7 8 8 9 9 10 10 10 10 10
3 2 2 2 3 4 5 6 6 6 6 7 8 8 8 8 8 8 8 8 8 8 7 7 7 7 7 7 7 7 7 7 7 7 8 8 9 10 10 10 11 11 11
3 3 2 2 3 4 5 5 6 6 6 7 8 8 7 7 8 8 8 9 8 8 7 7 7 7 7 8 8 7 7 8 8 8 8 8 9 10 10 11 11 11 11
3 2 2 2 3 4 5 6 6 7 7 7 7 7 7 7 8 8 9 9 8 8 8 8 8 8 8 8 8 8 8 7 7 7 8 8 9 10 11 11 11 11 11
3 1 1 2 3 3 5 5 6 7 6 6 7 7 7 7 8 9 9 9 8 8 8 8 8 9 9 8 8 8 8 7 7 7 7 8 8 9 11 11 11 11 11
2 1 1 2 3 3 5 6 6 6 6 6 7 8 8 8 9 9 9 9 9 9 9 9 9 9 9 9 9 8 7 6 6 6 7 8 8 8 10 11 11 11 11
2 1 2 3 3 4 5 6 5 5 6 6 7 7 8 9 9 9 10 9 9 9 9 9 9 9 10 9 8 7 6 6 5 5 6 6 7 8 9 10 10 10 10
2 1 1 2 3 4 5 5 5 5 5 6 7 7 8 9 9 10 10 10 9 9 9 9 9 9 9 9 8 7 6 5 4 5 5 5 6 7 8 9 11 10 9
1 0 1 2 3 4 5 4 4 5 6 6 7 7 8 8 9 10 10 10 10 9 9 9 9 9 10 9 9 8 7 5 4 4 4 4 5 6 7 9 10 10 10
0 1 1 2 3 4 5 4 4 5 6 7 7 7 7 8 9 10 10 11 10 9 9 9 9 9 10 10 9 7 6 4 3 3 3 3 4 5 6 7 9 10 10
0 1 1 2 3 3 4 4 4 5 6 7 7 7 7 8 10 10 11 10 10 9 9 9 9 9 10 10 9 8 6 4 3 3 2 2 3 3 4 5 7 8 9
1 1 1 1 2 3 3 4 4 5 5 6 6 7 8 9 10 10 11 11 11 10 10 10 9 9 9 9 9 8 7 5 4 3 2 1 1 2 3 4 5 7 8
1 0 1 1 2 3 3 3 4 4 5 6 6 7 8 9 10 10 10 11 11 11 11 10 10 9 9 9 9 8 7 6 5 4 3 1 0 1 2 3 4 5 7
2 1 0 1 1 2 2 3 3 4 5 5 6 7 8 9 10 10 10 10 11 11 11 11 10 9 9 9 8 8 7 6 5 4 3 2 1 1 2 3 4 5 6
2 1 1 1 1 1 1 2 3 4 4 5 6 7 8 9 10 10 11 11 11 12 11 11 10 9 9 9 8 8 7 6 6 5 3 3 2 1 1 2 3 4 6
3 2 2 2 1 1 1 2 3 3 4 5 5 7 7 8 9 9 10 11 12 12 12 11 10 9 9 9 8 8 7 6 6 5 4 3 2 2 1 1 2 3 4
4 3 3 2 2 2 2 2 2 3 3 4 5 6 7 8 8 8 10 11 12 12 12 11 11 10 9 9 8 8 7 7 6 6 5 4 3 3 2 2 3 4 4
5 4 4 3 3 3 3 3 2 3 3 4 5 6 7 7 7 8 9 10 11 12 12 11 11 10 9 9 9 8 7 7 7 6 5 5 4 4 3 3 3 4 5
6 5 5 4 3 3 3 3 3 3 4 5 6 6 6 7 7 8 9 10 11 12 12 12 11 11 10 9 8 8 8 8 7 6 6 5 5 5 5 4 4 5 6
7 6 6 5 5 4 4 4 4 4 4 5 5 5 6 6 7 8 9 9 10 11 12 12 11 11 10 9 9 8 8 8 7 7 6 6 6 6 6 6 6 6 6
8 7 7 6 5 5 5 5 5 5 4 4 4 4 5 5 6 7 8 9 10 11 12 12 12 11 11 10 9 9 8 8 7 7 7 7 7 7 7 7 7 8 8

GEFSSE_500_meanwind_156.txt.gz
Wind_Speed
3 2 2 3 3 4 3 3 3 3 3 4 5 5 6 6 6 6 6 6 6 6 6 6 5 5 5 5 5 6 6 6 7 7 7 7 8 8 8 8 9 9 8
2 2 1 2 2 3 2 2 2 3 3 4 5 5 5 5 6 6 6 6 5 5 6 6 6 6 5 5 5 5 6 7 7 8 8 7 8 8 7 8 8 9 9
2 2 1 1 1 2 2 2 3 3 4 5 5 5 5 6 6 6 5 4 4 5 5 5 6 6 5 5 5 5 6 6 7 7 8 8 8 8 8 8 8 9 9
2 2 1 1 1 1 2 2 3 4 5 5 5 5 5 5 6 6 5 5 5 5 5 5 5 5 5 5 5 5 5 6 7 7 8 8 9 9 9 9 9 9 10
2 2 1 1 1 2 2 3 3 4 5 6 6 5 5 5 5 5 5 6 5 5 5 5 5 5 5 5 5 5 6 6 6 7 8 8 9 9 9 10 10 10 10
2 2 1 1 1 2 2 3 4 5 5 6 5 5 5 5 5 5 6 6 5 5 5 5 5 5 5 5 5 5 6 6 6 7 7 8 9 9 9 10 10 10 11
3 2 1 0 1 2 2 3 4 5 5 5 5 5 5 5 5 6 6 6 6 5 5 5 5 5 5 5 5 5 5 6 6 6 7 8 9 9 10 10 11 11 11
3 2 1 1 1 2 2 3 4 5 5 5 5 5 5 5 6 6 6 6 6 6 6 6 6 6 6 6 6 6 5 5 6 6 7 8 9 10 10 10 11 11 11
3 2 2 1 1 1 3 3 4 5 5 5 5 5 5 5 6 6 6 6 6 6 6 6 6 6 6 6 6 6 5 5 5 6 6 7 9 10 10 11 11 11 11
3 2 1 1 1 2 3 4 4 4 5 5 5 6 6 6 6 6 6 7 7 7 7 7 7 7 7 7 6 6 5 4 4 5 5 6 7 9 10 10 11 11 11
3 2 2 1 2 2 3 4 4 4 5 5 5 6 6 7 7 7 7 7 8 8 7 8 7 7 7 7 6 6 5 3 3 4 4 5 6 7 9 10 10 10 11
3 2 1 1 2 2 3 4 4 4 5 5 6 6 7 7 7 8 8 8 8 8 8 8 8 8 7 7 6 5 4 3 2 2 3 3 4 6 8 9 9 10 10
4 2 2 1 1 2 3 3 4 4 5 5 6 6 6 7 7 8 8 8 8 8 8 8 8 8 8 7 6 5 4 2 1 1 2 2 3 5 6 7 8 9 10
4 3 2 1 0 1 2 3 4 4 5 5 5 6 6 7 8 8 8 8 8 8 8 8 8 8 8 7 6 5 3 2 1 1 1 1 2 4 5 6 7 8 9
4 3 2 1 0 1 2 3 3 4 4 5 6 6 7 8 8 8 8 8 9 9 9 8 8 8 7 6 6 5 3 2 1 1 1 1 1 2 4 5 6 7 8
4 3 2 1 1 1 2 2 3 4 4 5 6 7 8 8 8 8 8 8 8 9 8 8 7 8 7 6 6 5 4 3 2 2 2 2 2 2 3 4 5 7 8
4 2 2 2 2 1 1 2 3 3 4 5 6 7 8 8 8 8 8 8 9 9 8 8 7 7 7 6 5 5 5 3 3 2 2 2 3 3 4 4 5 6 7
4 3 2 2 1 1 1 1 2 3 4 5 6 7 8 8 8 9 9 9 10 9 9 8 7 7 7 6 6 5 5 4 3 3 3 2 3 4 4 4 4 5 6
4 4 4 3 2 1 1 1 2 3 3 4 5 6 7 8 8 8 9 9 10 9 9 8 8 7 7 6 6 6 5 4 3 3 3 3 3 3 3 4 3 4 5
5 5 4 3 2 1 1 1 1 2 3 4 5 6 7 7 8 8 9 9 10 9 9 9 8 7 7 7 6 6 6 5 4 3 3 3 3 3 3 3 3 4 4
5 5 4 3 2 1 1 0 0 1 2 3 4 5 6 6 7 8 9 9 10 10 9 9 8 7 7 7 7 6 6 5 4 3 3 2 2 2 2 2 2 2 3
5 5 4 3 2 2 1 1 1 1 2 2 3 4 5 6 6 7 8 9 10 10 9 9 8 8 8 7 7 7 6 6 5 4 3 2 2 1 1 2 2 2 2
6 6 5 4 3 2 2 2 2 2 1 2 3 4 5 5 6 6 8 8 9 9 9 9 8 8 7 7 7 7 6 6 5 4 4 2 1 1 1 1 2 2 2
7 7 6 5 4 4 3 3 3 3 2 1 2 3 4 5 5 6 7 8 9 9 9 9 8 8 7 7 6 6 6 6 5 5 4 3 2 0 1 1 2 2 3
8 7 6 6 6 5 4 4 3 4 3 2 2 2 3 4 5 5 6 7 8 9 9 8 8 7 7 7 6 6 6 6 6 5 4 3 2 2 1 2 3 3 4
8 8 7 7 6 6 5 4 4 4 4 3 3 2 2 3 3 4 5 5 7 7 8 8 8 8 7 7 6 6 5 5 5 5 4 4 3 3 3 3 4 5 5